BEIDOU IGSO 2

Last updated on April 2, 2019, 3:15 a.m. UTC

1 37256U 10068A   19091.35039035 -.00000180  00000-0  10000-3 0  9990
2 37256  52.1978 303.5703 0064390 203.6372 285.8754  1.00295074 30395
UTC
Height (km)
Latitude
Longitude
Inclination
Orbital Period
UTC large
Height (km)
Speed (km/s)
/
Latitude / Longitude
Inclination (degrees)
Orbital Period (minutes)
Azimuth
Elevation
Range (km)
Doppler Factor
iOS Compass Heading
iOS Angle

Next 30 passes for location: Hong Kong

Rise time Rise Azimuth (degrees) Set time Set Azimuth (degrees) Duration Max altitude (degrees)

No matching passes for this satellites